Location: ???? ??????? ????
(31.2176°N, 31.6797°E)
Time: 10:55:20
(UTC+00:00)

CZ-4B R/B - Pass Details

Date: 29 October 2020
Orbit: 388 x 462 km, 97.6° (Epoch: 26 November)

Event Time Altitude Azimuth Distance (km) Brightness Sun altitude
Rises 15:38:18 0° 4° (N) 2,349 4.9 -7.4°
Reaches altitude 10° 15:40:22 10° 358° (N) 1,471 3.9 -7.8°
Maximum altitude 15:43:22 44° 284° (WNW) 567 2.5 -8.4°
Drops below altitude 10° 15:46:17 10° 211° (SSW) 1,432 4.6 -9.0°
Sets 15:48:16 0° 204° (SSW) 2,276 5.5 -9.4°
